Wind_Speed
23 23 22 21 21 21 21 21 21 21 20 20 20 20 20 19 19 20 20 20 20 21 21 22 22 22 22 22 23 23 24 24 25 25 26 26 27 28 29 29 30 30 30 31 31 31 30 30 30 30 31 31 30 30 29 28 28 27 26 26 26 25 25 25 25 25 24 24 23
24 23 22 21 21 20 20 20 20 20 20 20 20 20 20 20 20 20 21 21 21 21 22 22 22 22 22 22 23 23 23 24 24 25 25 26 26 27 28 28 29 29 30 30 30 31 30 30 30 30 30 31 30 30 30 29 29 28 27 27 26 26 25 25 25 25 24 24 23
24 24 23 22 22 21 20 20 19 19 19 19 19 20 20 20 21 21 21 22 22 22 22 23 23 23 22 22 23 23 23 24 24 24 25 25 26 26 27 28 28 29 29 30 30 30 31 31 30 30 30 31 30 30 30 30 29 29 28 28 27 27 26 26 25 25 24 24 23
24 24 23 23 23 22 22 21 20 19 19 19 19 20 20 21 21 22 22 22 22 23 23 23 24 23 23 23 23 23 24 24 24 24 25 25 25 26 26 27 27 28 29 29 30 30 30 30 30 30 30 31 31 31 30 30 30 29 29 28 28 27 27 26 26 25 25 24 24
24 24 24 24 24 24 23 23 22 21 20 20 19 20 20 21 21 22 22 22 23 24 24 24 24 24 24 24 24 24 24 24 24 24 25 25 26 26 26 26 27 28 28 29 29 30 30 30 30 30 30 30 30 30 30 30 29 29 29 29 28 28 27 27 26 26 25 25 25
24 24 24 24 24 24 24 23 23 22 22 21 21 21 21 21 21 22 22 23 24 24 24 24 24 24 24 24 24 24 25 25 25 25 26 26 26 26 26 26 27 27 28 28 29 29 29 29 29 30 30 30 30 30 30 29 29 28 28 28 28 28 27 27 27 26 26 26 25
24 24 24 24 24 24 24 24 24 23 23 23 23 23 23 22 22 23 23 24 24 24 24 24 24 25 25 25 25 25 25 26 26 26 27 27 27 27 27 27 27 27 28 28 29 29 29 29 29 29 29 29 29 29 29 29 28 28 28 28 28 28 27 26 27 27 27 26 26
24 25 25 25 25 25 25 25 24 24 24 24 25 25 25 24 24 24 24 24 24 24 25 25 25 25 25 25 26 26 26 26 27 27 27 27 28 28 27 27 27 28 28 28 28 29 29 29 28 28 29 29 29 29 29 28 28 27 27 27 27 27 27 26 27 27 27 26 26
24 25 25 25 25 25 25 25 25 25 25 26 26 27 26 26 26 26 25 25 25 25 25 25 25 25 25 26 26 26 27 27 27 28 28 28 28 28 28 28 28 28 28 28 28 29 29 28 28 28 28 28 28 28 29 28 27 27 27 27 27 27 27 27 27 27 27 27 26
25 25 25 25 25 26 26 26 26 26 27 27 28 28 27 27 27 27 27 27 26 26 25 26 25 25 26 26 27 27 27 28 28 28 28 28 29 29 29 29 29 29 29 29 29 29 28 28 27 27 28 28 28 28 28 28 27 27 27 27 27 27 27 28 28 28 28 28 27
26 26 26 25 25 26 26 26 26 27 27 28 28 28 28 28 28 28 28 27 26 26 27 27 26 26 27 27 27 28 28 28 28 28 28 29 29 29 29 29 29 29 29 29 29 28 28 28 27 27 28 28 28 28 28 27 27 27 27 27 28 28 28 29 29 29 29 28 28
27 27 26 26 26 25 25 26 26 27 27 28 28 28 28 28 28 28 28 27 27 27 28 28 28 27 28 28 28 28 28 28 29 29 29 29 29 29 29 29 29 29 29 29 28 28 28 28 28 28 28 28 28 28 27 28 27 27 27 28 29 29 29 30 30 30 29 29 28
27 26 26 26 26 26 26 26 26 27 27 27 28 28 28 28 28 28 27 27 28 28 29 29 28 28 28 29 29 29 29 29 29 29 29 29 29 29 29 29 29 29 29 29 28 28 28 28 28 28 28 28 28 28 28 28 28 28 28 29 29 30 30 30 31 30 30 29 28
26 26 26 26 26 26 26 26 27 27 27 27 27 27 27 27 27 27 27 28 29 29 29 29 29 29 29 29 30 30 30 29 29 29 29 29 29 29 29 29 29 29 29 29 29 29 29 29 29 29 29 29 28 28 28 28 28 28 29 30 30 31 31 31 31 31 30 29 28
26 26 26 26 26 26 26 26 27 26 26 27 27 27 26 26 27 27 27 28 29 29 29 29 29 30 30 30 30 30 30 29 29 28 29 29 29 29 29 29 29 29 29 29 29 29 29 29 29 29 29 29 29 29 29 29 28 29 29 30 31 31 31 31 31 31 31 30 29
25 26 26 26 26 26 26 26 26 26 26 26 26 26 26 26 26 26 27 27 28 28 28 29 29 29 30 30 30 29 29 29 29 29 29 29 30 30 30 30 30 29 29 29 28 29 29 29 29 29 29 29 29 29 29 29 29 29 30 30 31 31 31 31 31 32 31 30 30
25 25 25 25 26 26 27 27 26 26 26 26 26 26 25 25 25 26 26 27 28 28 28 29 29 29 29 29 29 29 29 29 29 30 30 30 31 31 31 30 30 29 29 29 29 29 29 29 28 28 28 28 28 29 29 29 29 29 29 30 30 30 30 31 31 31 31 31 30
25 25 25 25 25 26 27 27 27 27 27 26 26 26 25 25 25 26 26 27 27 27 28 28 29 29 29 29 29 29 29 29 30 30 31 31 31 31 31 30 30 29 29 29 29 29 29 28 28 28 27 28 28 28 29 29 29 29 29 29 29 29 29 30 31 31 31 31 31
25 25 25 25 26 26 27 27 27 28 28 27 27 26 26 26 26 26 26 26 27 27 27 28 28 28 28 29 29 29 29 30 30 31 31 31 31 31 31 31 30 29 29 29 28 28 28 28 27 27 27 27 28 28 28 28 28 28 28 28 29 29 30 30 30 30 30 30 30
26 26 26 26 27 27 27 28 28 28 28 28 28 27 27 27 27 26 26 27 27 27 27 27 28 28 28 29 29 29 30 30 30 31 31 31 31 31 31 30 30 29 29 29 28 28 28 27 27 27 27 27 28 28 28 28 28 28 28 28 29 29 30 30 29 29 29 29 29
25 26 26 27 27 28 28 28 28 28 28 28 28 28 28 27 27 27 27 27 27 27 27 27 28 28 28 29 29 29 30 30 30 30 30 30 31 31 30 30 29 29 29 28 28 28 28 27 27 27 27 27 28 28 28 28 28 28 28 28 29 29 29 29 29 29 28 28 27
18 21 23 24 26 27 28 28 28 28 28 28 28 28 28 28 28 28 28 28 27 27 27 28 28 28 28 29 29 30 30 30 30 30 30 30 30 30 30 29 29 28 28 28 28 28 28 28 28 28 28 28 28 28 28 28 28 28 28 28 28 29 29 29 29 29 28 27 25
10 12 15 17 20 23 25 26 27 28 28 28 28 28 28 28 28 28 28 28 28 28 28 28 28 28 29 29 29 29 29 29 30 29 29 29 29 29 29 29 28 28 28 29 28 28 28 28 28 29 29 29 28 28 28 28 28 28 28 28 28 28 28 28 29 28 27 25 23
7 8 9 11 13 16 18 21 23 25 26 27 28 28 28 28 28 28 28 28 28 28 28 28 28 28 29 28 29 29 29 30 30 30 30 29 29 29 28 28 28 28 29 29 29 29 29 29 29 29 30 29 29 28 28 28 28 28 28 28 28 29 28 28 28 28 26 24 22
8 8 8 9 9 11 12 14 17 19 21 23 25 26 27 27 27 28 28 28 28 28 28 28 28 28 28 28 28 28 29 29 30 30 30 29 29 28 28 28 28 28 29 29 29 30 30 30 30 30 30 30 29 28 28 28 28 28 28 29 29 28 28 28 28 27 26 24 22
8 8 8 8 9 9 10 10 12 13 15 17 19 20 22 24 25 26 27 27 28 28 28 28 27 27 27 27 28 28 28 29 29 30 30 29 29 28 28 28 28 29 29 29 30 30 30 30 30 30 30 29 29 28 28 27 27 28 28 28 28 28 28 28 28 27 26 24 23
8 8 8 9 9 9 9 10 10 11 12 13 14 16 17 19 20 22 24 25 26 26 27 26 26 26 26 27 27 28 28 29 29 29 29 29 29 28 28 29 29 29 29 30 30 30 30 30 30 30 29 29 28 28 27 27 27 27 27 28 28 28 28 28 28 27 26 25 24
8 8 8 9 9 9 10 10 10 11 11 12 12 13 14 16 18 20 21 23 24 24 24 25 25 25 25 26 27 28 29 29 29 29 29 29 28 28 29 29 29 29 29 29 29 29 29 29 29 29 29 28 28 27 27 26 26 27 27 27 27 28 28 28 28 27 26 25 25
8 8 8 9 9 9 10 10 10 11 11 12 12 13 13 14 16 17 19 20 21 22 22 23 23 24 24 26 27 28 28 29 29 29 28 28 28 28 29 29 30 29 29 29 29 29 29 29 29 29 29 28 27 27 26 26 26 27 27 28 28 28 28 28 28 27 26 26 25
8 8 9 9 9 9 10 10 10 11 11 12 12 13 13 14 14 15 16 18 19 20 21 22 22 23 24 26 27 27 28 28 28 28 28 28 28 28 29 30 30 29 29 29 29 29 29 29 29 29 28 28 27 27 26 26 26 27 28 28 29 29 29 29 28 27 27 26 26
8 8 9 9 9 9 9 10 10 10 11 11 12 12 13 13 13 14 14 15 17 18 19 20 21 22 24 25 26 26 27 27 27 28 28 28 28 29 29 30 29 29 29 29 29 29 29 29 28 28 28 28 27 27 27 27 27 28 28 29 29 30 29 29 29 28 27 27 26
8 9 9 9 9 9 9 9 10 10 10 11 11 11 12 12 12 12 13 13 14 16 17 19 20 22 23 24 25 26 26 26 27 27 28 28 28 28 29 29 29 28 28 29 29 29 28 28 28 28 28 28 27 27 27 27 28 28 28 28 29 29 29 29 28 28 27 27 27
9 9 9 9 9 9 9 9 9 9 9 9 10 10 10 10 10 10 10 11 12 15 17 19 20 22 23 24 25 25 25 25 26 26 27 27 27 27 28 28 27 27 27 27 27 27 27 27 27 27 27 27 27 27 27 27 27 27 28 28 28 29 29 29 28 28 27 27 27
10 10 10 9 9 9 9 9 9 9 9 8 8 8 8 8 8 9 9 10 12 14 16 18 20 21 22 22 23 23 24 24 24 25 25 26 26 26 26 26 26 26 26 26 26 26 26 26 26 26 27 27 26 27 27 27 27 27 27 28 28 28 28 28 28 28 27 27 27
13 13 12 11 10 9 9 9 9 8 8 8 8 8 8 8 8 8 9 9 11 13 15 16 18 19 20 20 21 22 23 23 23 24 24 24 24 24 24 25 25 25 25 25 25 25 25 25 25 25 26 26 26 26 26 26 26 27 27 27 27 28 28 27 27 27 27 26 26
16 16 15 14 12 11 10 9 9 9 9 10 9 9 9 9 8 8 8 9 10 12 14 16 17 18 19 19 20 21 22 22 22 22 22 23 23 23 24 25 25 24 25 25 25 25 24 23 24 24 25 25 25 26 26 26 26 26 26 27 27 27 27 27 27 27 26 26 26
18 17 17 16 15 13 12 11 11 11 11 11 11 11 10 9 9 8 8 9 10 12 14 15 16 17 18 19 19 19 20 20 20 20 21 22 22 23 23 23 24 24 24 24 24 23 22 22 22 23 24 25 26 25 25 25 25 25 25 25 26 26 26 26 26 26 25 25 25
17 18 18 18 17 16 14 13 12 12 12 12 12 11 11 10 8 8 8 8 10 11 13 14 15 16 16 17 16 17 17 17 18 18 19 20 21 22 22 22 22 23 23 23 23 22 21 20 21 23 24 25 26 25 24 24 24 24 23 23 24 24 24 24 25 24 24 24 24
16 17 17 18 17 17 16 15 14 13 12 12 12 11 10 9 8 7 7 7 8 10 11 12 13 13 13 14 14 15 15 16 17 17 18 19 20 21 21 21 21 22 22 22 22 21 20 20 20 22 24 25 25 25 24 23 23 22 22 21 21 22 22 23 23 23 23 23 23
15 15 16 17 17 17 17 16 15 14 12 11 11 10 9 8 7 6 6 7 7 8 9 10 11 11 12 12 13 13 14 15 16 17 17 18 19 20 20 20 21 22 22 22 22 21 20 19 20 22 23 24 25 24 23 23 22 21 21 20 20 20 21 22 22 22 22 22 22
14 14 15 16 17 17 17 17 16 14 13 11 9 8 7 7 7 7 7 7 7 8 9 9 10 10 11 12 12 13 13 14 15 16 16 17 17 18 19 20 20 21 21 22 21 20 19 19 20 21 23 24 24 24 23 23 22 21 20 20 20 20 20 21 22 22 22 22 22
Wind_Direction
223 225 226 228 229 231 232 234 236 236 237 237 237 238 239 240 240 241 242 242 243 243 245 246 248 250 251 252 252 253 255 257 258 258 257 257 257 257 257 256 254 252 251 251 250 250 249 249 249 249 249 250 251 252 253 254 254 254 254 255 256 258 259 260 261 261 262 263 264
225 227 229 230 232 234 235 237 238 238 238 239 240 240 242 242 242 243 244 244 245 246 248 249 251 252 252 253 254 254 255 257 258 259 259 259 259 259 259 258 256 255 253 252 250 250 249 249 248 248 248 249 250 251 252 253 253 253 253 254 256 257 258 259 261 262 263 264 264
227 229 231 232 234 235 236 237 239 240 240 241 242 243 243 244 244 245 245 246 249 250 250 250 252 253 253 254 254 254 255 256 257 258 259 259 260 260 259 258 257 256 254 253 251 250 249 249 248 247 247 248 249 249 250 252 252 252 252 253 254 255 256 258 260 261 262 262 262
229 231 232 234 235 236 237 239 240 242 243 244 244 245 245 245 245 246 247 249 250 250 250 251 253 254 254 255 255 255 255 256 256 257 258 259 260 260 259 259 258 257 255 254 252 251 250 249 248 247 247 248 248 249 250 251 251 251 251 252 253 254 255 257 258 260 260 260 259
231 233 234 236 237 239 240 241 242 243 244 246 246 246 246 246 246 246 247 247 248 249 251 253 254 255 255 255 255 255 255 256 256 256 257 258 259 259 259 258 258 257 256 255 253 251 250 249 248 247 247 248 248 249 250 251 250 250 251 252 252 253 253 254 256 257 257 257 256
233 235 236 238 239 241 242 243 243 244 245 246 246 246 246 245 245 245 246 246 248 250 252 253 253 254 255 254 254 254 255 255 255 255 256 257 258 258 258 258 258 257 257 255 254 252 250 248 247 247 247 247 247 248 249 249 249 249 249 250 251 251 252 252 253 254 254 253 253
235 237 238 239 240 241 242 243 244 244 245 246 246 246 246 246 246 246 247 249 250 251 251 251 251 252 252 253 253 254 254 255 255 255 256 257 257 257 257 257 257 257 256 255 254 252 250 248 246 245 246 246 246 247 247 247 246 247 247 248 249 250 249 249 250 250 250 250 251
237 239 240 240 241 242 242 243 243 244 244 244 245 246 247 247 247 248 249 250 250 250 250 250 251 251 251 252 252 253 254 254 255 256 256 256 257 257 257 257 256 256 256 255 253 251 249 247 245 244 244 245 245 245 246 244 244 244 245 246 247 248 247 247 247 247 247 247 249
238 239 240 241 241 242 242 243 243 243 243 244 244 246 247 247 248 248 249 248 249 250 251 250 251 251 251 251 252 253 254 254 255 256 256 256 256 256 256 256 255 255 255 254 252 251 249 246 244 243 243 244 244 245 245 244 242 241 242 243 244 245 246 246 246 246 246 246 246
237 239 240 240 241 242 242 243 243 243 244 244 245 246 246 247 247 248 248 249 250 250 250 250 250 250 250 251 251 252 253 254 255 255 256 256 256 256 255 255 254 254 253 253 251 250 247 244 242 242 243 243 244 244 244 243 241 239 240 241 242 242 244 245 245 245 244 244 244
238 239 239 240 241 242 242 242 243 243 244 245 246 246 246 246 247 247 248 249 249 249 249 250 250 250 250 251 251 252 253 254 254 255 255 256 256 256 255 255 254 253 253 252 250 248 245 242 241 240 241 242 242 242 242 242 240 238 238 238 239 240 241 243 244 243 242 241 241
239 240 241 241 242 242 242 242 243 243 244 245 246 246 246 246 247 247 248 248 247 248 249 250 250 250 250 251 252 253 253 253 254 254 254 255 255 256 255 255 254 253 252 251 249 247 244 242 240 239 239 240 240 240 240 240 239 237 235 236 237 238 239 240 241 241 240 239 236
240 241 242 242 242 242 242 242 243 244 245 245 246 246 246 247 247 247 247 247 247 248 249 250 250 250 250 251 252 252 253 253 253 253 253 254 254 254 254 254 253 252 251 250 248 246 244 242 241 239 238 238 238 238 238 238 237 235 233 234 235 237 237 239 239 239 238 236 234
242 242 242 242 242 242 242 242 243 244 245 245 246 247 247 247 248 248 247 247 247 248 248 249 249 249 250 251 251 252 252 252 252 252 252 253 253 253 253 253 252 251 250 249 247 245 244 243 242 240 238 237 237 238 238 237 236 234 234 233 234 236 237 237 238 237 236 233 232
242 243 243 243 243 242 242 242 244 245 246 246 247 248 248 248 248 248 247 247 248 248 248 248 248 249 250 251 251 251 251 251 250 250 251 252 252 252 252 252 252 250 249 247 246 245 244 244 243 241 239 237 237 238 238 237 236 235 234 235 236 237 237 237 237 237 235 233 233
243 243 244 243 243 242 242 243 244 245 246 247 248 248 248 248 248 248 247 247 248 248 247 246 247 248 249 250 250 249 249 249 249 249 249 250 250 251 251 251 250 249 248 246 245 244 244 244 243 242 239 238 237 237 238 238 237 236 235 236 236 237 237 237 238 238 237 236 235
244 244 244 244 243 243 243 243 244 245 246 247 248 249 248 248 248 248 247 247 247 247 246 246 247 247 247 248 248 248 247 246 247 247 247 248 249 249 250 249 249 249 247 245 244 243 243 243 242 241 239 238 237 237 238 238 236 235 235 235 235 235 236 238 239 239 238 237 236
246 246 246 245 245 244 245 245 245 246 247 248 249 250 250 249 249 248 248 248 247 246 246 246 247 247 246 246 247 247 246 245 245 246 247 248 249 249 249 249 249 249 247 245 244 243 242 242 241 240 238 237 237 237 237 237 236 235 234 234 234 235 236 238 240 240 239 238 238
248 248 247 247 247 247 247 247 247 248 249 250 250 250 251 250 250 249 249 248 247 247 246 246 246 246 246 246 246 246 246 246 246 247 248 249 250 249 249 249 249 248 246 245 244 243 242 241 240 238 237 236 236 236 236 236 235 234 233 233 233 235 237 239 240 240 240 239 238
249 249 249 249 249 249 249 249 250 250 251 251 251 251 251 251 251 250 250 249 249 249 248 247 246 246 245 246 245 246 246 247 247 248 249 249 249 249 249 249 248 246 245 244 243 242 241 240 239 237 237 236 235 235 235 235 233 233 232 232 233 235 237 238 238 239 239 239 238
251 251 251 251 251 251 251 251 252 252 252 252 252 252 252 252 251 251 251 252 251 250 249 247 246 246 245 245 245 245 247 248 247 247 248 248 248 248 248 248 246 245 244 243 242 241 240 238 237 237 236 236 236 236 235 234 232 231 231 231 232 234 236 237 237 237 237 237 237
258 257 256 255 254 253 253 253 253 253 253 253 253 253 252 252 252 252 252 253 252 251 249 248 247 246 245 245 245 246 247 247 247 247 247 248 248 248 248 246 245 243 242 242 241 240 239 237 237 236 236 236 237 237 236 234 232 230 229 230 231 233 234 236 237 237 236 236 236
273 269 265 262 259 257 256 255 254 254 254 253 253 253 253 253 253 253 253 253 252 251 249 248 247 246 246 246 246 247 247 246 246 246 247 247 247 247 246 244 242 241 241 241 240 239 237 236 236 236 237 237 237 236 235 234 232 230 228 228 229 230 232 234 235 236 235 235 235
286 282 277 272 267 263 261 259 257 256 255 255 255 254 254 254 254 254 253 253 252 250 249 248 247 247 246 246 246 245 245 245 245 245 245 246 245 244 243 242 241 240 240 241 241 240 238 236 236 236 238 238 237 236 234 233 232 230 228 227 227 229 231 233 234 234 233 233 233
286 284 283 281 278 274 270 267 264 261 260 259 258 258 257 257 256 255 254 253 252 251 250 248 247 246 245 244 243 243 243 244 244 244 244 243 243 242 240 240 239 239 240 241 241 242 241 240 239 238 238 237 235 233 232 232 231 230 228 227 227 227 229 231 232 232 231 231 230
291 287 285 283 282 282 280 278 275 272 269 267 265 263 261 260 259 257 256 255 253 252 250 248 247 245 243 241 240 240 241 242 243 243 242 241 240 239 238 238 238 239 240 240 242 242 242 242 241 241 239 237 233 230 228 228 229 228 227 226 226 226 227 229 229 230 230 229 228
301 295 290 286 284 283 283 283 283 281 279 276 273 270 267 264 262 259 257 256 255 253 251 248 246 243 241 239 237 237 238 239 240 241 241 240 238 237 237 237 238 239 240 241 242 242 242 241 241 241 240 237 233 229 227 226 226 226 225 224 224 226 228 229 230 229 228 227 225
311 306 301 297 293 289 286 285 286 285 284 283 280 277 274 270 266 262 259 258 256 254 251 247 244 241 238 236 236 236 237 238 238 238 238 238 237 236 236 237 238 240 242 243 243 243 242 240 240 240 239 237 234 231 228 226 225 224 223 222 223 225 228 230 231 230 228 225 223
321 318 314 309 304 298 294 291 288 287 286 285 284 281 278 275 270 266 263 260 257 253 249 245 241 237 234 233 235 236 237 236 236 236 236 235 235 235 236 237 239 241 243 244 244 244 242 240 239 239 238 237 234 231 228 226 225 224 224 223 223 225 228 230 231 230 227 225 221
330 326 323 320 316 310 304 298 292 289 287 285 284 283 280 278 274 270 266 261 256 252 248 243 238 234 232 233 234 234 234 234 235 235 234 233 233 234 235 237 239 242 244 245 245 244 242 240 238 237 237 235 233 231 228 227 226 226 225 225 225 226 228 230 230 229 227 225 220
340 335 332 328 325 320 313 305 298 292 289 286 285 283 282 280 278 274 269 263 258 252 247 241 236 233 233 234 234 233 233 233 233 233 233 233 233 234 236 238 240 242 244 245 244 243 241 238 236 236 235 234 232 230 228 228 228 228 228 227 227 228 229 230 230 229 227 225 220
347 342 339 336 332 327 321 313 305 298 293 289 286 285 284 283 282 279 274 267 258 250 242 237 234 233 233 233 233 232 232 232 232 233 234 234 234 236 237 239 240 242 243 243 243 241 239 237 235 234 233 232 230 229 229 229 230 230 229 228 229 230 231 230 230 229 228 226 222
355 350 345 341 337 333 327 320 313 306 300 295 292 290 290 289 287 283 276 267 255 245 238 235 233 232 231 231 230 231 231 232 233 234 235 235 235 236 237 238 239 241 242 242 242 241 239 237 234 232 231 229 228 228 229 230 230 230 229 228 229 231 232 232 231 231 229 227 223
6 2 356 350 344 339 332 326 321 316 311 307 305 303 302 300 296 288 277 263 252 243 239 237 235 234 233 233 231 231 231 233 234 235 235 235 236 236 237 238 239 241 242 243 243 242 240 237 233 230 227 226 225 226 227 228 228 227 227 227 228 230 231 232 232 232 230 227 222
17 13 8 3 356 349 342 337 334 331 329 327 324 322 318 312 304 292 278 263 251 242 238 236 236 235 234 234 235 234 234 234 234 235 235 235 236 236 238 239 241 243 244 244 245 244 242 238 233 228 224 222 222 224 225 226 225 225 225 225 226 228 229 230 230 230 229 227 222
22 19 16 12 8 3 358 354 351 349 347 343 339 334 327 319 308 295 280 264 251 240 235 233 232 232 232 233 234 235 235 234 235 236 237 237 238 239 240 242 243 244 246 247 247 246 243 238 231 226 222 221 221 222 223 223 223 223 223 223 224 226 227 227 227 228 227 225 221
22 20 19 17 15 12 10 7 4 1 356 351 344 337 330 320 308 294 279 263 248 239 235 233 231 231 231 232 233 235 236 236 236 237 238 240 240 241 242 244 245 247 248 249 249 247 243 237 230 224 221 219 220 220 220 220 219 220 221 221 222 224 225 225 225 225 225 223 219
21 20 20 19 17 16 15 14 12 8 2 354 346 338 330 320 307 292 276 261 248 239 236 234 232 232 233 235 235 236 238 238 239 240 241 243 244 244 245 246 248 250 252 253 252 250 245 237 230 224 221 219 219 218 217 217 217 217 218 219 220 221 222 223 223 223 223 222 219
20 20 20 20 19 18 17 16 14 11 5 356 346 337 329 320 308 293 277 262 250 242 238 235 234 235 236 237 238 240 241 242 243 244 245 246 248 249 249 250 252 255 257 257 256 253 247 239 230 224 221 220 219 218 217 217 216 216 216 216 217 218 220 221 221 222 222 222 219
20 21 21 22 21 19 18 17 15 11 6 358 349 340 330 322 312 299 285 269 255 247 242 240 239 240 241 242 243 245 246 248 248 248 249 250 252 253 254 255 256 258 260 261 259 255 249 240 230 223 220 220 219 219 219 218 216 214 213 214 215 216 217 219 220 220 220 219 216
20 22 24 25 24 23 22 20 18 14 9 2 356 348 339 329 320 310 298 282 265 254 249 247 248 248 249 249 250 251 252 253 253 253 253 254 255 257 258 258 258 258 259 260 259 256 249 239 229 222 220 220 220 220 220 219 216 213 212 213 214 214 215 216 218 219 218 215 212
Height
766 766 767 768 769 769 770 770 771 772 773 774 774 775 775 776 777 777 778 778 779 779 779 780 780 781 782 782 783 783 783 784 784 784 784 785 785 785 785 786 786 787 787 788 789 789 790 790 791 792 792 793 793 794 794 795 796 796 797 797 797 798 798 798 799 799 799 799 800
765 765 766 767 768 768 769 769 770 771 772 772 773 774 774 775 775 776 776 777 777 778 778 779 779 780 780 781 781 782 782 782 783 783 783 783 783 784 784 784 785 785 786 786 787 787 788 789 789 790 790 791 791 792 792 793 794 794 795 795 795 796 796 797 797 797 798 798 799
764 765 765 766 767 767 768 769 769 770 770 771 772 773 773 774 774 775 775 775 776 777 777 777 778 778 779 779 780 780 780 781 781 781 782 782 782 782 782 783 783 784 784 784 785 785 786 787 787 788 788 789 789 790 790 791 792 792 793 793 794 794 795 795 795 796 796 796 797
763 764 764 765 765 766 767 768 768 769 769 770 771 772 772 772 773 773 774 774 775 775 775 776 776 777 777 778 778 779 779 779 779 780 780 780 780 781 781 781 781 782 782 783 783 784 784 785 785 786 786 787 787 788 789 789 790 790 791 791 792 792 793 793 794 794 794 794 795
761 762 763 764 764 765 766 766 767 768 769 769 770 770 770 771 771 772 772 773 773 774 774 774 775 775 776 776 777 777 777 778 778 778 778 778 779 779 779 780 780 780 781 781 782 782 783 783 784 784 785 785 786 786 787 788 788 789 789 789 790 790 791 791 792 792 793 793 793
760 761 761 762 763 764 764 765 766 767 767 768 768 769 769 769 770 770 771 771 771 772 773 773 774 774 774 775 775 775 776 776 776 776 777 777 777 777 778 778 778 779 779 779 780 781 781 782 782 783 783 784 784 785 785 786 787 787 788 788 788 789 789 789 790 790 791 791 791
759 759 760 761 762 762 763 764 764 765 766 766 767 767 767 768 768 769 769 769 770 770 771 771 772 772 773 773 774 774 774 774 774 775 775 775 775 776 776 776 777 777 778 778 779 779 780 780 781 781 782 782 783 783 784 785 785 785 786 786 786 787 787 788 788 789 789 789 789
757 758 759 759 760 761 761 762 763 764 764 764 764 765 765 766 766 767 767 768 768 769 769 770 770 771 771 771 772 772 772 772 773 773 773 773 774 774 774 775 775 775 776 776 777 778 778 779 779 779 780 780 781 781 782 783 784 784 784 784 785 785 786 786 786 787 787 788 788
755 756 757 758 758 759 759 760 761 762 762 762 762 763 763 764 764 765 765 766 766 767 768 768 768 769 769 769 770 770 770 770 771 771 771 772 772 772 773 773 774 774 774 775 775 776 776 777 778 778 778 779 779 779 780 781 782 782 782 783 783 784 784 784 785 785 785 786 787
754 754 755 756 756 757 758 759 759 759 759 760 760 761 761 762 763 763 764 764 764 765 766 766 767 767 768 768 768 768 768 769 769 769 769 770 770 770 771 771 772 772 773 773 774 774 775 775 776 776 776 777 777 778 779 779 780 780 781 781 781 782 782 783 783 783 784 784 785
752 753 753 754 754 755 756 757 757 757 758 758 758 759 759 760 760 761 762 762 763 764 764 764 765 765 765 766 766 766 766 767 767 767 768 768 768 769 769 769 770 770 771 771 772 772 773 774 774 774 774 775 775 776 777 777 778 779 779 779 779 780 780 780 781 781 782 782 783
750 751 752 753 753 754 754 755 755 755 756 756 756 757 757 758 759 759 760 761 761 761 761 762 763 763 764 764 764 764 764 765 765 765 766 766 766 767 767 768 768 769 769 769 770 771 771 771 772 772 773 773 774 774 775 775 776 777 777 777 778 778 778 779 779 779 780 780 781
749 750 750 751 752 752 753 753 753 754 754 754 754 754 755 756 757 758 758 759 759 759 759 760 761 761 761 762 762 762 763 763 763 764 764 764 764 765 765 766 766 767 767 768 768 769 769 769 770 770 771 771 772 772 773 774 774 774 775 775 775 776 776 776 777 778 778 779 779
748 748 749 749 750 751 751 751 751 752 752 752 752 753 754 754 755 755 756 756 757 757 758 758 759 759 759 759 760 760 761 761 762 762 762 762 763 763 764 764 764 764 765 766 766 767 767 767 768 768 769 769 770 770 771 772 772 773 773 773 773 774 774 774 775 776 777 777 778
746 747 747 748 749 749 749 749 749 750 750 750 750 751 752 752 753 754 754 754 754 755 756 756 757 757 757 758 758 759 759 759 760 760 760 761 761 761 761 762 762 763 763 764 764 764 765 765 766 766 767 768 768 769 769 769 770 770 771 771 771 772 772 773 774 774 775 775 776
745 745 746 746 747 747 747 748 748 748 748 748 749 749 750 750 751 751 752 752 752 753 754 754 754 755 755 755 756 757 757 758 758 758 759 759 759 759 759 759 760 760 761 762 762 763 763 764 764 765 765 766 766 767 767 768 768 769 769 769 770 770 771 771 772 773 773 774 775
743 744 744 745 745 745 745 745 746 746 746 746 747 748 748 749 749 749 750 750 750 751 751 752 752 753 753 754 754 755 755 756 756 756 756 756 756 757 757 758 758 759 759 760 760 761 761 762 762 763 764 764 765 765 766 766 767 767 768 768 769 769 770 770 771 771 772 773 773
741 742 742 743 743 743 744 744 744 744 744 745 745 746 746 747 747 747 748 748 748 749 749 749 750 751 751 752 752 753 753 754 754 754 754 754 754 755 755 756 756 757 758 758 759 759 759 760 761 762 762 763 764 764 764 765 765 766 766 767 767 768 768 769 769 770 771 771 772
740 740 741 741 741 741 742 742 742 742 743 743 744 744 744 745 745 745 746 746 746 747 747 748 748 749 749 750 750 750 751 751 751 751 752 752 753 753 754 754 755 755 756 756 757 758 758 759 759 760 761 761 762 762 763 764 764 764 765 765 766 766 767 767 768 769 769 770 770
738 738 739 739 739 739 740 740 740 740 741 741 742 742 742 743 743 744 744 744 744 745 745 746 746 747 747 748 748 749 749 749 749 749 750 750 751 751 752 752 753 754 754 755 755 756 757 758 758 759 759 760 760 761 761 762 763 763 764 764 764 765 765 766 767 767 768 769 769
736 736 736 737 737 737 738 738 738 738 739 739 739 740 740 741 741 742 742 742 743 743 744 744 744 744 745 746 746 746 747 747 747 748 748 749 749 749 750 751 751 752 753 753 754 754 755 756 757 757 758 758 759 759 760 760 761 761 762 763 763 764 764 765 765 766 767 767 769
734 735 735 735 735 735 736 736 736 737 737 737 737 738 738 739 739 739 740 740 741 741 741 741 742 742 743 744 744 744 745 745 745 746 746 747 747 748 749 749 750 750 751 751 752 753 754 754 755 755 756 756 757 757 758 759 759 760 760 761 762 762 763 764 764 765 765 766 768
734 734 734 734 734 734 734 734 734 735 735 735 735 736 736 736 737 737 738 738 739 739 739 739 740 740 741 741 742 742 743 743 744 744 744 745 745 746 747 748 748 749 749 749 750 751 752 752 753 753 754 754 755 756 756 757 758 758 759 760 760 761 762 762 763 764 764 766 767
733 732 732 732 732 732 732 732 733 733 733 733 733 734 734 734 735 735 736 736 736 736 737 737 738 738 739 739 740 741 741 742 742 742 743 743 744 745 745 746 747 747 747 748 748 749 749 750 751 751 752 753 754 754 755 755 756 757 758 758 759 759 760 761 762 762 764 764 766
732 732 731 731 731 731 731 731 731 731 731 731 731 732 732 732 733 733 734 734 734 734 735 735 735 736 737 737 738 739 739 739 740 740 741 742 742 743 744 744 745 745 745 746 746 747 748 748 749 749 750 751 752 753 754 754 755 755 756 756 757 758 759 759 760 761 762 763 764
731 731 731 730 730 730 730 730 730 730 730 730 730 730 730 730 731 731 731 732 732 732 733 733 734 734 735 736 736 737 737 738 738 739 739 740 741 741 742 743 743 743 744 744 744 745 746 746 747 748 749 749 750 751 752 753 753 754 754 755 756 756 757 758 758 759 760 761 763
730 730 730 729 729 729 729 729 729 729 729 729 729 729 729 729 729 729 729 730 730 730 731 732 732 733 734 734 734 735 735 735 736 736 737 738 739 740 740 741 741 741 742 742 743 744 744 745 746 747 747 748 749 750 751 751 752 753 753 754 754 755 755 756 756 757 759 760 761
729 729 729 729 729 728 728 728 728 728 728 728 728 727 727 727 727 728 728 728 729 729 730 730 731 731 732 733 733 733 733 734 734 735 735 736 737 738 739 739 739 739 740 741 741 742 743 744 744 745 746 747 748 749 749 750 751 751 752 753 753 754 754 754 755 756 757 758 759
729 728 728 728 728 728 727 727 727 727 727 726 726 726 726 726 726 726 726 727 727 728 728 729 729 730 730 731 731 731 731 732 733 733 734 735 736 736 737 737 737 738 739 739 740 741 741 742 743 744 744 746 747 747 748 749 749 750 750 751 752 752 753 753 754 754 755 756 757
728 728 728 727 727 727 726 726 726 726 725 725 725 725 725 724 724 724 725 725 725 726 727 727 728 729 729 729 729 730 730 731 731 732 733 734 734 734 735 735 736 736 737 738 738 739 739 740 741 742 743 744 745 746 747 747 748 748 749 749 750 750 751 751 752 753 754 755 756
728 727 727 726 726 726 726 725 725 725 724 724 724 724 724 723 723 723 723 724 724 725 725 726 727 727 727 728 728 729 729 730 730 731 732 732 733 733 734 734 734 735 736 736 737 737 738 739 740 741 742 743 744 744 745 745 746 746 747 747 748 749 749 750 750 751 752 753 754
727 727 726 726 725 725 725 724 724 724 724 723 723 723 722 722 722 722 722 723 723 724 725 725 726 726 726 727 727 728 729 729 729 730 730 731 732 732 733 733 734 734 735 735 736 737 737 738 739 740 740 741 742 743 743 744 744 745 745 746 746 747 748 749 749 749 750 751 752
727 726 726 725 725 724 724 724 724 723 723 722 722 722 722 721 721 721 722 722 722 723 724 724 724 725 725 726 727 727 728 728 729 729 730 730 731 732 732 733 734 734 734 735 735 736 737 738 739 739 739 740 741 741 742 742 743 744 744 744 745 746 746 747 748 748 749 749 750
726 726 725 724 724 724 723 723 723 722 722 722 721 721 721 721 721 721 721 721 722 722 723 724 724 724 725 726 726 727 727 728 729 729 730 730 731 732 732 733 733 734 734 734 735 736 736 737 738 738 739 739 739 740 741 741 742 743 743 743 744 744 745 746 746 747 747 748 749
726 725 725 724 724 723 723 722 722 722 721 721 721 721 720 720 720 720 721 721 722 722 723 723 724 724 725 726 726 727 727 728 728 729 729 730 731 732 732 732 733 734 734 734 734 735 736 737 737 738 738 739 739 739 739 740 741 741 742 742 743 743 744 745 745 746 747 747 749
726 725 725 724 724 723 722 722 722 721 721 721 721 720 720 720 720 721 721 721 722 722 723 723 724 724 725 725 726 726 727 727 728 729 729 730 731 731 731 732 732 733 733 734 734 734 735 736 737 737 738 738 738 738 739 739 740 740 741 741 742 742 743 744 744 745 746 747 748
727 726 725 724 724 723 723 722 722 721 721 721 721 721 721 721 721 721 721 722 722 722 723 723 724 724 724 725 726 726 727 728 728 729 729 730 730 730 731 731 732 732 733 733 733 734 734 735 736 737 737 737 737 737 738 739 739 739 740 740 741 741 742 743 743 744 745 746 748
728 727 726 725 724 724 723 722 722 721 721 721 721 721 721 721 721 722 722 722 722 723 723 724 724 724 725 726 726 727 728 728 729 729 729 729 730 730 731 731 732 732 732 733 733 734 734 735 735 736 736 736 736 737 737 738 738 739 739 740 740 741 741 742 743 744 744 746 747
728 728 727 726 725 724 724 723 722 722 722 722 722 722 722 722 722 722 723 723 723 724 724 724 725 725 726 726 727 727 728 728 729 729 729 729 730 730 731 731 731 732 732 732 733 733 734 734 735 735 735 735 735 736 737 737 738 738 739 739 740 740 741 741 742 743 744 745 746
729 728 727 727 726 725 724 724 723 723 722 722 722 723 723 723 723 723 723 724 724 724 724 725 725 726 726 727 727 727 728 728 728 729 729 729 729 730 730 731 731 731 731 732 732 732 733 734 734 734 735 735 735 736 736 737 737 738 739 739 739 740 740 741 741 742 743 744 746
729 729 728 727 727 726 725 725 724 724 723 723 723 723 724 724 724 724 724 724 724 724 725 725 725 726 726 727 727 727 728 728 728 729 729 729 729 730 730 730 730 730 731 731 731 731 732 733 734 734 734 734 734 735 735 736 737 737 738 738 739 739 739 740 741 741 742 744 745